Date String (YYYY-MM-DD hh:mm:ss) UTC,Instrument flags,Ambient pressure (hPa),Sample flow (lpm),Bypass flow (lpm),Sample temperature (°C),Ambient temperature (°C),ASC tube jacket temperature (°C),LED temperature (°C),Box temperature (°C),Sample RH (%),Span deviation,Mass concentration (μg/m³),Mass concentration (μg/m³),Mass concentration (μg/m³)
DateTimeUTC,F1_M11,P_M11,Q1_M11,Q2_M11,T1_M11,T2_M11,T3_M11,T4_M11,T5_M11,U1_M11,ZSPAN_M11,X0_M11,X2_M11,X1_M11
2021-10-15 09:00:00,,0829.2,5.00,0.00,23.2,22.0,00.0,32.4,24.9,16.7,0000.0,0008.18,0004.41,0004.10
2021-10-15 09:01:00,,0829.2,5.00,0.00,23.2,22.0,00.0,32.4,24.9,15.9,0000.0,0008.25,0004.64,0004.34
2021-10-15 09:02:00,,0829.3,4.99,0.00,23.2,22.0,00.0,32.4,24.9,15.9,0000.0,0008.54,0004.91,0004.60
2021-10-15 09:03:00,,0829.3,5.02,0.00,23.2,22.0,00.0,32.4,24.9,16.9,0000.0,0008.72,0005.31,0004.98
2021-10-15 09:04:00,,0829.3,4.99,0.00,23.2,22.0,00.0,32.4,24.9,17.5,0000.0,0009.10,0005.78,0005.39
2021-10-15 09:05:00,,0829.2,5.01,0.00,23.2,22.1,00.0,32.4,24.9,18.1,0000.0,0009.95,0006.26,0005.84
2021-10-15 09:06:00,,0829.2,5.00,0.00,23.2,22.1,00.0,32.4,25.0,17.0,0000.0,0010.19,0006.53,0006.11
2021-10-15 09:07:00,,0829.3,5.00,0.00,23.2,22.2,00.0,32.4,25.0,18.1,0000.0,0010.37,0006.73,0006.31
2021-10-15 09:08:00,,0829.2,4.99,0.00,23.2,22.2,00.0,32.3,25.0,18.3,0000.0,0010.55,0006.74,0006.33
2021-10-15 09:09:00,,0829.2,5.01,0.00,23.2,22.2,00.0,32.4,25.0,18.4,0000.0,0010.73,0006.82,0006.39
2021-10-15 09:10:00,,0829.2,5.00,0.00,23.2,22.2,00.0,32.3,25.0,18.8,0000.0,0010.62,0006.99,0006.53
2021-10-15 09:11:00,,0829.2,5.00,0.00,23.2,22.2,00.0,32.3,25.0,19.0,0000.2,0010.82,0007.19,0006.73
2021-10-15 09:12:00,,0829.3,4.99,0.00,23.2,22.3,00.0,32.3,25.0,19.0,0000.0,0011.19,0007.49,0007.01
2021-10-15 09:13:00,,0829.2,5.01,0.00,23.2,22.3,00.0,32.3,25.0,19.1,0000.1,0011.70,0007.81,0007.28
2021-10-15 09:14:00,,0829.3,5.01,0.00,23.2,22.3,00.0,32.3,25.0,18.9,0000.0,0011.98,0007.99,0007.43
2021-10-15 09:15:00,,0829.2,5.00,0.00,23.2,22.2,00.0,32.3,25.0,18.8,0000.4,0011.70,0008.07,0007.54
2021-10-15 09:16:00,,0829.2,5.01,0.00,23.2,22.3,00.0,32.3,25.0,18.9,0000.8,0012.04,0008.16,0007.63
2021-10-15 09:17:00,,0829.2,4.99,0.00,23.2,22.3,00.0,32.3,25.0,19.1,0001.2,0012.52,0008.44,0007.87
2021-10-15 09:18:00,,0829.2,5.00,0.00,23.2,22.3,00.0,32.3,25.0,19.2,0000.8,0012.81,0008.56,0007.98
2021-10-15 09:19:00,,0829.3,5.01,0.00,23.2,22.3,00.0,32.3,25.0,19.4,0000.3,0012.98,0008.67,0008.09
2021-10-15 09:20:00,,0829.2,5.00,0.00,23.2,22.3,00.0,32.3,25.0,19.3,0000.4,0013.00,0008.78,0008.20
2021-10-15 09:21:00,,0829.3,4.99,0.00,23.2,22.3,00.0,32.3,25.0,19.0,0000.6,0013.00,0008.82,0008.23
2021-10-15 09:22:00,,0829.2,5.00,0.00,23.2,22.3,00.0,32.3,25.0,19.0,0000.5,0012.93,0008.79,0008.23
2021-10-15 09:23:00,,0829.3,5.00,0.00,23.2,22.3,00.0,32.3,25.0,19.0,0000.8,0012.89,0008.77,0008.22
2021-10-15 09:24:00,,0829.2,4.99,0.00,23.2,22.3,00.0,32.3,25.0,19.1,0000.9,0012.62,0008.71,0008.21
2021-10-15 09:25:00,,0829.3,5.00,0.00,23.2,22.3,00.0,32.3,25.0,19.2,0000.9,0012.47,0008.67,0008.21
2021-10-15 09:26:00,,0829.3,5.01,0.00,23.2,22.3,00.0,32.3,25.0,19.0,-000.0,0012.45,0008.65,0008.20
2021-10-15 09:27:00,,0829.1,4.99,0.00,23.2,22.3,00.0,32.4,25.0,17.4,0000.2,0011.77,0008.39,0007.95
2021-10-15 09:28:00,,0829.2,5.01,0.00,23.2,22.3,00.0,32.4,25.0,16.7,-000.4,0011.23,0008.02,0007.59
2021-10-15 09:29:00,,0829.3,4.99,0.00,23.2,22.3,00.0,32.4,25.0,17.8,-000.2,0011.01,0007.86,0007.43
2021-10-15 09:30:00,,0829.3,5.01,0.00,23.2,22.3,00.0,32.4,25.0,17.2,0000.7,0010.51,0007.64,0007.21
2021-10-15 09:31:00,,0829.3,5.00,0.00,23.2,22.3,00.0,32.4,25.0,16.9,0000.0,0010.57,0007.33,0006.95
2021-10-15 09:32:00,,0829.3,4.99,0.00,23.2,22.2,00.0,32.3,25.0,16.8,0000.0,0010.47,0007.07,0006.70
2021-10-15 09:33:00,,0829.3,4.99,0.00,23.2,22.2,00.0,32.3,25.0,17.9,0000.0,0010.45,0007.07,0006.69
2021-10-15 09:34:00,,0829.2,5.01,0.00,23.2,22.2,00.0,32.3,25.0,18.3,0000.0,0010.37,0007.09,0006.72
2021-10-15 09:35:00,,0829.2,5.00,0.00,23.2,22.2,00.0,32.3,25.0,18.5,0000.0,0010.49,0007.13,0006.71
2021-10-15 09:36:00,,0829.3,4.99,0.00,23.2,22.2,00.0,32.3,25.0,18.6,0000.0,0010.50,0007.12,0006.69
2021-10-15 09:37:00,,0829.3,5.00,0.00,23.2,22.3,00.0,32.3,25.0,18.7,0000.0,0010.53,0007.16,0006.71
2021-10-15 09:38:00,,0829.3,4.99,0.00,23.2,22.2,00.0,32.3,25.0,18.7,0000.0,0010.77,0007.43,0006.98
2021-10-15 09:39:00,,0829.2,5.00,0.00,23.2,22.2,00.0,32.3,25.0,18.7,0000.6,0010.98,0007.72,0007.27
2021-10-15 09:40:00,,0829.3,4.99,0.00,23.2,22.2,00.0,32.3,25.0,18.3,0001.4,0010.89,0007.66,0007.24
2021-10-15 09:41:00,,0829.3,5.00,0.00,23.2,22.2,00.0,32.3,25.0,18.8,0003.3,0010.96,0007.76,0007.34
2021-10-15 09:42:00,,0829.3,5.01,0.00,23.2,22.2,00.0,32.3,25.0,18.8,0001.9,0010.70,0007.95,0007.52
2021-10-15 09:43:00,,0829.3,4.99,0.00,23.2,22.2,00.0,32.3,25.0,18.9,0003.1,0010.68,0008.09,0007.70
2021-10-15 09:44:00,,0829.3,5.02,0.00,23.2,22.2,00.0,32.3,25.0,19.0,0002.1,0010.69,0008.06,0007.66
2021-10-15 09:45:00,,0829.2,4.98,0.00,23.2,22.2,00.0,32.3,25.0,19.0,0000.0,0010.68,0007.98,0007.57
2021-10-15 09:46:00,,0829.3,5.00,0.00,23.2,22.2,00.0,32.3,25.0,19.0,0000.5,0010.63,0007.87,0007.49
2021-10-15 09:47:00,,0829.3,5.00,0.00,23.2,22.2,00.0,32.3,25.0,19.2,0000.1,0010.60,0007.83,0007.46
2021-10-15 09:48:00,,0829.2,5.00,0.00,23.2,22.2,00.0,32.3,25.0,19.2,0000.0,0010.50,0007.72,0007.35
2021-10-15 09:49:00,,0829.2,5.00,0.00,23.2,22.2,00.0,32.3,25.0,19.1,0000.0,0010.45,0007.59,0007.25
2021-10-15 09:50:00,,0829.2,5.00,0.00,23.2,22.2,00.0,32.3,25.0,18.1,0000.0,0010.38,0007.44,0007.08
2021-10-15 09:51:00,,0829.2,4.99,0.00,23.2,22.2,00.0,32.3,25.0,17.3,0000.0,0010.34,0007.39,0007.04
2021-10-15 09:52:00,,0829.3,5.01,0.00,23.2,22.3,00.0,32.3,25.0,16.7,0000.0,0010.19,0007.20,0006.85
2021-10-15 09:53:00,,0829.4,4.99,0.00,23.2,22.3,00.0,32.3,25.0,14.7,0000.0,0011.19,0006.88,0006.53
2021-10-15 09:54:00,,0829.3,4.99,0.00,23.2,22.2,00.0,32.3,25.0,13.7,0000.0,0010.96,0006.52,0006.18
2021-10-15 09:55:00,,0829.4,5.01,0.00,23.2,22.2,00.0,32.3,25.0,13.5,0000.0,0010.76,0006.17,0005.83
2021-10-15 09:56:00,,0829.5,5.01,0.00,23.2,22.2,00.0,32.3,25.0,12.8,0000.0,0010.42,0005.83,0005.52
2021-10-15 09:57:00,,0829.5,5.00,0.00,23.2,22.2,00.0,32.3,24.9,12.3,0000.0,0009.97,0005.48,0005.18
2021-10-15 09:58:00,,0829.5,5.00,0.00,23.2,22.2,00.0,32.3,24.9,12.1,0000.0,0009.53,0005.08,0004.79
2021-10-15 09:59:00,,0829.4,5.01,0.00,23.2,22.2,00.0,32.3,24.9,11.8,0000.0,0009.14,0004.71,0004.44
